sat.trackr.live / text

‹ back to catalog

STARLINK-6158

NORAD 56375 · 2023-061B

PAYLOAD ACTIVE UNKNOWN

§ Identity

Operator
Country
US
Launch date
2023-05-04
Launch site
AFETR
Launch vehicle
Mass (kg)
RCS (m²)

Purposes: comms

External: N2YO · Heavens-Above · Gunter

§ Orbital elements

Epoch: 2026-05-24T22:36:39.517920Z

Period
94.27 min
Inclination
43.0037°
Eccentricity
0.0001743
Mean motion
15.27578851 rev/d
Perigee alt
481.9 km
Apogee alt
484.2 km
Semi-major
6,861.2 km
B*
2.5796e-5
RAAN
127.0786°
Arg perigee
278.6462°
Mean anomaly
81.4192°
Rev number
16,841

§ Raw data

STARLINK-61581 56375U 23061B   26144.94212405  .00000448  00000+0  25796-4 0  99902 56375  43.0037 127.0786 0001743 278.6462  81.4192 15.27578851168410

JSON: /api/v1/satellites/56375 · /tle

For live sub-satellite position, see the globe view (requires WebGL).

§ Visibility from observer

Set your observer location to see the next 7 days of passes ≥ 10°. The values pass through the URL so the page stays shareable.

No JS? Fill the form by hand. The geolocation button needs JavaScript.